GTI103 EKCH-EDDP

Flight info

Callsign GTI103
Flight time 0h 52m
Altitude 31000
Route SALLO M736 MAG Z20 KENIG T959 KOJEC KOJEC1V
Aircraft B748/H-SDE3FGHIM1M2RWXY/LB1

Departure

Time 2026-04-22 21:35
Airport Copenhagen Kastrup Airport (EKCH)

Arrival

Time 2026-04-22 22:27
Airport Leipzig/Halle Airport (EDDP)
Time Latitude Longitude Altitude Speed Heading
2026-04-22 20:29 55.61797 12.67162 30 ft 0 kts 79°
2026-04-22 21:06 55.61794 12.67140 30 ft 2 kts 76°
2026-04-22 21:06 55.61790 12.67112 30 ft 2 kts 72°
2026-04-22 21:06 55.61784 12.67084 29 ft 2 kts 67°
2026-04-22 21:07 55.61777 12.67058 28 ft 2 kts 56°
2026-04-22 21:07 55.61767 12.67035 27 ft 2 kts 37°
2026-04-22 21:07 55.61752 12.67020 30 ft 2 kts
2026-04-22 21:07 55.61737 12.67019 30 ft 1 kts 351°
2026-04-22 21:08 55.61733 12.67020 30 ft 0 kts 348°
2026-04-22 21:16 55.61735 12.67019 30 ft 1 kts 348°
2026-04-22 21:16 55.61755 12.67012 30 ft 5 kts 348°
2026-04-22 21:17 55.61802 12.66995 30 ft 9 kts 348°
2026-04-22 21:17 55.61854 12.66976 30 ft 8 kts 348°
2026-04-22 21:17 55.61884 12.66942 30 ft 4 kts 309°
2026-04-22 21:17 55.61892 12.66900 30 ft 3 kts 278°
2026-04-22 21:18 55.61887 12.66854 30 ft 5 kts 258°
2026-04-22 21:18 55.61876 12.66762 30 ft 10 kts 258°
2026-04-22 21:18 55.61860 12.66618 30 ft 13 kts 258°
2026-04-22 21:18 55.61845 12.66495 30 ft 6 kts 258°
2026-04-22 21:19 55.61846 12.66434 30 ft 3 kts 288°
2026-04-22 21:19 55.61861 12.66401 30 ft 4 kts 314°
2026-04-22 21:19 55.61893 12.66369 30 ft 7 kts 338°
2026-04-22 21:19 55.61939 12.66339 30 ft 7 kts 341°
2026-04-22 21:20 55.61983 12.66313 30 ft 6 kts 342°
2026-04-22 21:20 55.62021 12.66291 30 ft 6 kts 342°
2026-04-22 21:20 55.62070 12.66262 30 ft 9 kts 341°
2026-04-22 21:20 55.62138 12.66222 29 ft 12 kts 341°
2026-04-22 21:21 55.62221 12.66160 29 ft 14 kts 337°
2026-04-22 21:21 55.62300 12.66101 30 ft 9 kts 336°
2026-04-22 21:21 55.62316 12.66069 30 ft 2 kts 297°
2026-04-22 21:21 55.62319 12.66034 30 ft 4 kts 272°
2026-04-22 21:22 55.62313 12.65981 30 ft 7 kts 256°
2026-04-22 21:22 55.62302 12.65869 30 ft 12 kts 265°
2026-04-22 21:22 55.62298 12.65692 30 ft 16 kts 269°
2026-04-22 21:22 55.62297 12.65508 30 ft 10 kts 269°
2026-04-22 21:23 55.62296 12.65370 30 ft 13 kts 269°
2026-04-22 21:23 55.62293 12.65253 30 ft 8 kts 261°
2026-04-22 21:23 55.62277 12.65216 30 ft 3 kts 221°
2026-04-22 21:23 55.62263 12.65206 30 ft 2 kts 195°
2026-04-22 21:24 55.62234 12.65198 30 ft 6 kts 193°
2026-04-22 21:24 55.62187 12.65158 30 ft 7 kts 212°
2026-04-22 21:24 55.62149 12.65112 30 ft 4 kts 214°
2026-04-22 21:24 55.62142 12.65104 30 ft 0 kts 214°
2026-04-22 21:26 55.62137 12.65097 31 ft 3 kts 214°
2026-04-22 21:27 55.62117 12.65074 31 ft 7 kts 215°
2026-04-22 21:27 55.62063 12.65008 31 ft 12 kts 214°
2026-04-22 21:27 55.61978 12.64909 30 ft 17 kts 212°
2026-04-22 21:27 55.61862 12.64777 30 ft 22 kts 212°
2026-04-22 21:28 55.61732 12.64626 30 ft 22 kts 214°
2026-04-22 21:28 55.61606 12.64482 30 ft 21 kts 211°
2026-04-22 21:28 55.61486 12.64346 30 ft 21 kts 214°
2026-04-22 21:28 55.61369 12.64206 30 ft 20 kts 213°
2026-04-22 21:29 55.61255 12.64083 30 ft 19 kts 212°
2026-04-22 21:29 55.61142 12.63953 30 ft 20 kts 213°
2026-04-22 21:29 55.61025 12.63815 30 ft 21 kts 213°
2026-04-22 21:29 55.60901 12.63676 30 ft 21 kts 212°
2026-04-22 21:30 55.60773 12.63529 30 ft 22 kts 213°
2026-04-22 21:30 55.60643 12.63370 30 ft 23 kts 217°
2026-04-22 21:30 55.60541 12.63219 30 ft 8 kts 206°
2026-04-22 21:30 55.60510 12.63213 30 ft 2 kts 172°
2026-04-22 21:31 55.60497 12.63225 30 ft 2 kts 149°
2026-04-22 21:31 55.60475 12.63262 30 ft 7 kts 135°
2026-04-22 21:31 55.60428 12.63352 31 ft 11 kts 131°
2026-04-22 21:31 55.60413 12.63432 31 ft 4 kts 81°
2026-04-22 21:32 55.60433 12.63485 31 ft 7 kts 46°
2026-04-22 21:32 55.60464 12.63537 31 ft 0 kts 42°
2026-04-22 21:33 55.60506 12.63603 31 ft 20 kts 41°
2026-04-22 21:34 55.60729 12.63945 32 ft 69 kts 41°
2026-04-22 21:34 55.61247 12.64743 31 ft 125 kts 41°
2026-04-22 21:34 55.62015 12.65935 31 ft 167 kts 40°
2026-04-22 21:34 55.62931 12.67378 251 ft 182 kts 39°
2026-04-22 21:35 55.63874 12.68921 761 ft 180 kts 39°
2026-04-22 21:35 55.64760 12.70399 1461 ft 173 kts 37°
2026-04-22 21:35 55.65694 12.71828 1813 ft 183 kts 34°
2026-04-22 21:35 55.66736 12.73258 2192 ft 191 kts 31°
2026-04-22 21:36 55.67763 12.74691 2929 ft 188 kts 34°
2026-04-22 21:36 55.68747 12.76161 3901 ft 183 kts 34°
2026-04-22 21:36 55.69731 12.77634 4568 ft 186 kts 34°
2026-04-22 21:36 55.70728 12.79141 5175 ft 191 kts 37°
2026-04-22 21:37 55.71466 12.81338 5292 ft 232 kts 71°
2026-04-22 21:37 55.71427 12.84425 5426 ft 275 kts 103°
2026-04-22 21:37 55.70426 12.87363 6148 ft 291 kts 134°
2026-04-22 21:37 55.68671 12.89340 6860 ft 304 kts 161°
2026-04-22 21:38 55.66632 12.90134 7028 ft 306 kts 173°
2026-04-22 21:38 55.64528 12.90621 7034 ft 304 kts 171°
2026-04-22 21:38 55.62452 12.91363 7031 ft 305 kts 172°
2026-04-22 21:38 55.60359 12.91366 7036 ft 301 kts 197°
2026-04-22 21:39 55.58508 12.89830 7046 ft 292 kts 225°
2026-04-22 21:39 55.57060 12.87345 7174 ft 290 kts 232°
2026-04-22 21:39 55.55694 12.84702 7937 ft 290 kts 232°
2026-04-22 21:39 55.54296 12.82099 8805 ft 294 kts 231°
2026-04-22 21:40 55.52821 12.79557 9610 ft 301 kts 221°
2026-04-22 21:40 55.50918 12.77898 10345 ft 315 kts 196°
2026-04-22 21:40 55.48674 12.77639 10729 ft 335 kts 176°
2026-04-22 21:40 55.46297 12.78178 11066 ft 354 kts 171°
2026-04-22 21:41 55.43801 12.78909 11408 ft 373 kts 172°
2026-04-22 21:41 55.41191 12.79493 11744 ft 392 kts 174°
2026-04-22 21:41 55.38417 12.80002 12144 ft 407 kts 174°
2026-04-22 21:41 55.35578 12.80607 12883 ft 414 kts 170°
2026-04-22 21:42 55.32821 12.82100 13684 ft 418 kts 153°
2026-04-22 21:42 55.30361 12.84834 14457 ft 420 kts 140°
2026-04-22 21:42 55.28106 12.88117 15176 ft 423 kts 137°
2026-04-22 21:42 55.25856 12.91498 15891 ft 427 kts 138°
2026-04-22 21:43 55.23512 12.94746 16602 ft 432 kts 140°
2026-04-22 21:43 55.21116 12.97958 17296 ft 436 kts 140°
2026-04-22 21:43 55.18726 13.01274 17980 ft 439 kts 139°
2026-04-22 21:43 55.16335 13.04660 18619 ft 443 kts 138°
2026-04-22 21:44 55.13916 13.08032 19197 ft 446 kts 139°
2026-04-22 21:44 55.11498 13.11349 19781 ft 449 kts 139°
2026-04-22 21:44 55.09038 13.14734 20363 ft 451 kts 139°
2026-04-22 21:44 55.06573 13.18151 20941 ft 454 kts 138°
2026-04-22 21:45 55.04083 13.21594 21520 ft 456 kts 139°
2026-04-22 21:45 55.01579 13.25032 22065 ft 458 kts 139°
2026-04-22 21:45 54.99068 13.28474 22626 ft 460 kts 138°
2026-04-22 21:45 54.96441 13.31705 23155 ft 466 kts 148°
2026-04-22 21:46 54.93461 13.34002 23691 ft 473 kts 159°
2026-04-22 21:46 54.90226 13.35232 24133 ft 480 kts 171°
2026-04-22 21:46 54.86863 13.35294 24549 ft 486 kts 184°
2026-04-22 21:46 54.83575 13.34172 24942 ft 491 kts 195°
2026-04-22 21:47 54.80292 13.32422 25301 ft 494 kts 196°
2026-04-22 21:47 54.77012 13.30591 25664 ft 497 kts 196°
2026-04-22 21:47 54.73722 13.28761 26025 ft 499 kts 195°
2026-04-22 21:47 54.70401 13.26969 26391 ft 501 kts 195°
2026-04-22 21:48 54.67054 13.25174 26757 ft 504 kts 195°
2026-04-22 21:48 54.63702 13.23349 27143 ft 506 kts 195°
2026-04-22 21:48 54.60321 13.21502 27517 ft 509 kts 195°
2026-04-22 21:48 54.56935 13.19673 27887 ft 511 kts 195°
2026-04-22 21:49 54.53525 13.17842 28276 ft 514 kts 195°
2026-04-22 21:49 54.50106 13.16001 28659 ft 516 kts 195°
2026-04-22 21:49 54.46670 13.14147 29047 ft 519 kts 194°
2026-04-22 21:49 54.43237 13.12458 29463 ft 519 kts 193°
2026-04-22 21:50 54.39767 13.10704 30097 ft 518 kts 194°
2026-04-22 21:50 54.36326 13.08917 30659 ft 516 kts 193°
2026-04-22 21:50 54.32861 13.07187 30960 ft 517 kts 192°
2026-04-22 21:50 54.29402 13.05509 31193 ft 517 kts 192°
2026-04-22 21:51 54.22499 13.02064 31240 ft 515 kts 193°
2026-04-22 21:52 54.12195 12.96905 31247 ft 515 kts 197°
2026-04-22 21:52 54.05626 12.92120 31251 ft 517 kts 200°
2026-04-22 21:53 53.99003 12.87254 31262 ft 517 kts 199°
2026-04-22 21:53 53.92390 12.82436 31261 ft 517 kts 200°
2026-04-22 21:54 53.85778 12.77612 31266 ft 516 kts 199°
2026-04-22 21:54 53.79216 12.72859 31268 ft 515 kts 199°
2026-04-22 21:55 53.72618 12.68084 31268 ft 515 kts 199°
2026-04-22 21:55 53.66028 12.63333 31275 ft 514 kts 199°
2026-04-22 21:56 53.59476 12.58625 31269 ft 514 kts 199°
2026-04-22 21:56 53.52893 12.53910 31271 ft 514 kts 199°
2026-04-22 21:57 53.46310 12.49212 31279 ft 513 kts 199°
2026-04-22 21:57 53.39730 12.44532 31281 ft 513 kts 199°
2026-04-22 21:58 53.33195 12.39898 31284 ft 513 kts 198°
2026-04-22 21:58 53.26553 12.35212 31287 ft 527 kts 198°
2026-04-22 21:59 53.19719 12.30393 31292 ft 535 kts 198°
2026-04-22 21:59 53.12855 12.25577 31292 ft 535 kts 198°
2026-04-22 22:00 53.05984 12.20774 31294 ft 535 kts 198°
2026-04-22 22:00 52.99158 12.16017 31264 ft 536 kts 198°
2026-04-22 22:01 52.92347 12.10981 31295 ft 538 kts 201°
2026-04-22 22:01 52.85607 12.05564 31291 ft 538 kts 201°
2026-04-22 22:02 52.78874 12.00210 31302 ft 536 kts 200°
2026-04-22 22:02 52.71955 11.95754 31299 ft 532 kts 195°
2026-04-22 22:03 52.65059 11.91551 31310 ft 529 kts 192°
2026-04-22 22:03 52.57899 11.89542 31301 ft 520 kts 181°
2026-04-22 22:04 52.50715 11.88294 31309 ft 518 kts 180°
2026-04-22 22:04 52.43553 11.87039 31316 ft 518 kts 180°
2026-04-22 22:05 52.36432 11.85799 31309 ft 516 kts 180°
2026-04-22 22:05 52.29278 11.84557 31310 ft 516 kts 180°
2026-04-22 22:06 52.22128 11.83314 31315 ft 512 kts 180°
2026-04-22 22:06 52.18674 11.82710 31308 ft 496 kts 180°
2026-04-22 22:06 52.15285 11.82124 31302 ft 485 kts 180°
2026-04-22 22:07 52.08532 11.80986 31216 ft 486 kts 180°
2026-04-22 22:07 52.05171 11.80385 30655 ft 487 kts 182°
2026-04-22 22:07 52.01836 11.79151 29810 ft 496 kts 193°
2026-04-22 22:07 51.98638 11.76968 28555 ft 500 kts 205°
2026-04-22 22:08 51.95734 11.73959 27642 ft 494 kts 215°
2026-04-22 22:08 51.93133 11.70372 26687 ft 487 kts 218°
2026-04-22 22:08 51.90594 11.66775 26022 ft 483 kts 219°
2026-04-22 22:08 51.88078 11.63198 25422 ft 477 kts 219°
2026-04-22 22:09 51.85594 11.59678 24813 ft 472 kts 219°
2026-04-22 22:09 51.83134 11.56206 24236 ft 467 kts 220°
2026-04-22 22:09 51.80696 11.52765 23690 ft 463 kts 220°
2026-04-22 22:09 51.78279 11.49346 23057 ft 459 kts 220°
2026-04-22 22:10 51.75886 11.45969 22475 ft 455 kts 220°
2026-04-22 22:10 51.73536 11.42666 21897 ft 451 kts 220°
2026-04-22 22:10 51.71130 11.39457 21344 ft 447 kts 213°
2026-04-22 22:10 51.68414 11.37126 20796 ft 440 kts 199°
2026-04-22 22:11 51.65472 11.35921 20250 ft 433 kts 184°
2026-04-22 22:11 51.62495 11.35907 19712 ft 425 kts 169°
2026-04-22 22:11 51.59663 11.37067 19202 ft 417 kts 155°
2026-04-22 22:11 51.57136 11.39255 18675 ft 410 kts 142°
2026-04-22 22:12 51.54999 11.42230 18091 ft 403 kts 129°
2026-04-22 22:12 51.53841 11.44527 17593 ft 396 kts 123°
2026-04-22 22:12 51.52483 11.48352 16890 ft 392 kts 110°
2026-04-22 22:12 51.51617 11.53875 16088 ft 384 kts 93°
2026-04-22 22:13 51.51653 11.58114 15426 ft 377 kts 83°
2026-04-22 22:13 51.51806 11.60955 15035 ft 377 kts 83°
2026-04-22 22:13 51.52042 11.65087 14470 ft 372 kts 83°
2026-04-22 22:13 51.52260 11.69219 13654 ft 370 kts 83°
2026-04-22 22:14 51.52460 11.73322 13020 ft 363 kts 83°
2026-04-22 22:14 51.52656 11.77291 12743 ft 348 kts 83°
2026-04-22 22:14 51.52848 11.81058 12517 ft 328 kts 83°
2026-04-22 22:14 51.53029 11.84628 12297 ft 310 kts 83°
2026-04-22 22:15 51.53194 11.87952 12128 ft 294 kts 83°
2026-04-22 22:15 51.53351 11.91138 11908 ft 281 kts 83°
2026-04-22 22:15 51.53505 11.94233 11520 ft 276 kts 82°
2026-04-22 22:15 51.53655 11.97287 11082 ft 273 kts 82°
2026-04-22 22:16 51.53803 12.00317 10649 ft 271 kts 82°
2026-04-22 22:16 51.53949 12.03336 10207 ft 270 kts 82°
2026-04-22 22:16 51.54094 12.06332 9744 ft 268 kts 82°
2026-04-22 22:16 51.54237 12.09312 9287 ft 267 kts 82°
2026-04-22 22:17 51.54378 12.12281 8876 ft 264 kts 83°
2026-04-22 22:17 51.54512 12.15132 8701 ft 253 kts 82°
2026-04-22 22:17 51.54641 12.17884 8592 ft 242 kts 82°
2026-04-22 22:17 51.54767 12.20552 8401 ft 239 kts 82°
2026-04-22 22:18 51.54892 12.23191 8117 ft 236 kts 82°
2026-04-22 22:18 51.55014 12.25822 7781 ft 235 kts 82°
2026-04-22 22:18 51.55135 12.28431 7452 ft 234 kts 83°
2026-04-22 22:18 51.55255 12.31038 7100 ft 234 kts 83°
2026-04-22 22:19 51.55374 12.33640 6729 ft 232 kts 83°
2026-04-22 22:19 51.55491 12.36199 6339 ft 232 kts 83°
2026-04-22 22:19 51.55609 12.38809 5947 ft 231 kts 83°
2026-04-22 22:19 51.55723 12.41343 5567 ft 229 kts 83°
2026-04-22 22:20 51.55836 12.43863 5208 ft 224 kts 83°
2026-04-22 22:20 51.55924 12.46341 4826 ft 221 kts 90°
2026-04-22 22:20 51.55511 12.48698 4434 ft 222 kts 118°
2026-04-22 22:20 51.54481 12.50542 4050 ft 223 kts 145°
2026-04-22 22:21 51.53065 12.51460 3766 ft 218 kts 170°
2026-04-22 22:21 51.51587 12.51761 3533 ft 211 kts 175°
2026-04-22 22:21 51.50125 12.51965 3291 ft 211 kts 175°
2026-04-22 22:21 51.48659 12.52158 3041 ft 211 kts 175°
2026-04-22 22:22 51.47226 12.52340 3002 ft 200 kts 175°
2026-04-22 22:22 51.45858 12.52327 2983 ft 199 kts 195°
2026-04-22 22:22 51.44622 12.51389 3016 ft 196 kts 214°
2026-04-22 22:22 51.43521 12.50149 3007 ft 194 kts 224°
2026-04-22 22:23 51.42556 12.48667 3008 ft 191 kts 233°
2026-04-22 22:23 51.42139 12.46775 2993 ft 174 kts 277°
2026-04-22 22:23 51.42274 12.44839 2910 ft 176 kts 266°
2026-04-22 22:23 51.42202 12.42948 2700 ft 165 kts 272°
2026-04-22 22:24 51.42109 12.41114 2506 ft 165 kts 270°
2026-04-22 22:24 51.42038 12.39330 2277 ft 157 kts 269°
2026-04-22 22:24 51.41959 12.37603 2056 ft 157 kts 270°
2026-04-22 22:24 51.41878 12.35857 1829 ft 156 kts 269°
2026-04-22 22:25 51.41798 12.34135 1610 ft 155 kts 269°
2026-04-22 22:25 51.41717 12.32415 1388 ft 154 kts 269°
2026-04-22 22:25 51.41643 12.30722 1166 ft 151 kts 268°
2026-04-22 22:25 51.41565 12.29061 953 ft 147 kts 266°
2026-04-22 22:26 51.41483 12.27435 759 ft 146 kts 267°
2026-04-22 22:26 51.41409 12.25816 548 ft 145 kts 266°
2026-04-22 22:26 51.41337 12.24284 478 ft 121 kts 267°
2026-04-22 22:26 51.41289 12.23239 465 ft 64 kts 265°
2026-04-22 22:27 51.41257 12.22773 464 ft 29 kts 253°
2026-04-22 22:27 51.41165 12.22522 464 ft 18 kts 236°
2026-04-22 22:27 51.41098 12.22360 462 ft 11 kts 236°
2026-04-22 22:27 51.41061 12.22318 463 ft 4 kts 198°
2026-04-22 22:28 51.41041 12.22314 463 ft 2 kts 183°
2026-04-22 22:28 51.41027 12.22318 464 ft 2 kts 166°
2026-04-22 22:28 51.41008 12.22337 464 ft 5 kts 141°
2026-04-22 22:28 51.40994 12.22385 464 ft 5 kts 98°
2026-04-22 22:29 51.40995 12.22477 464 ft 11 kts 88°
2026-04-22 22:29 51.41002 12.22622 462 ft 14 kts 84°
2026-04-22 22:29 51.41013 12.22804 469 ft 19 kts 85°
2026-04-22 22:29 51.41023 12.23032 472 ft 14 kts 86°
2026-04-22 22:30 51.41028 12.23149 470 ft 11 kts 86°
2026-04-22 22:30 51.41034 12.23280 472 ft 14 kts 86°
2026-04-22 22:30 51.41043 12.23473 473 ft 20 kts 85°
2026-04-22 22:30 51.41051 12.23647 477 ft 16 kts 85°
2026-04-22 22:31 51.41061 12.23867 467 ft 23 kts 85°
2026-04-22 22:31 51.41076 12.24160 467 ft 28 kts 85°
2026-04-22 22:31 51.41088 12.24408 467 ft 23 kts 85°
2026-04-22 22:31 51.41101 12.24683 470 ft 25 kts 86°
2026-04-22 22:32 51.41110 12.24908 479 ft 14 kts 86°
2026-04-22 22:32 51.41116 12.25041 481 ft 10 kts 86°
2026-04-22 22:32 51.41105 12.25107 478 ft 5 kts 128°
2026-04-22 22:32 51.41071 12.25141 474 ft 7 kts 158°
2026-04-22 22:33 51.41043 12.25149 475 ft 4 kts 177°
2026-04-22 22:33 51.41025 12.25135 475 ft 3 kts 217°
2026-04-22 22:33 51.41012 12.25090 474 ft 5 kts 257°
2026-04-22 22:33 51.41009 12.25030 476 ft 5 kts 266°
2026-04-22 22:34 51.41007 12.24989 476 ft 0 kts 266°
2026-04-22 22:34 51.41007 12.24985 475 ft 0 kts 266°